Weather History for Cincinnati, OH

Change the Weather History Date:

Wednesday, December 14, 2011

  Actual Average Record
Temperature  
Mean Temperature 52 °F -  
Max Temperature 62 °F 44 °F 68 °F (1975)
Min Temperature 42 °F 29 °F 6 °F (1958)
Degree Days  
Heating Degree Days 13    
Growing Degree Days 2 (Base 50)    
Moisture  
Dew Point 47 °F    
Average Humidity 88    
Maximum Humidity 100    
Minimum Humidity 70    
Precipitation  
Precipitation 0.00 in - - ()
Sea Level Pressure  
Sea Level Pressure 30.23 in    
Wind  
Wind Speed 3 mph (SSW)    
Max Wind Speed 12 mph    
Max Gust Speed 20 mph    
Visibility 6 miles    
Events Rain    
Averages and records for this station are not official NWS values.
T = Trace of Precipitation, MM = Missing Value Source: NWS Daily Summary

Daily Weather History Graph

Daily Weather History Graph

Search for Another Location

Airport:

Trip Planner

Search our weather history database for the weather conditions in past years. The results will help you decide how hot, cold, wet, or windy it might be!

Date:

Astronomy

Dec. 14, 2011 Rise Set
Actual Time 7:48 AM EST 5:15 PM EST
Civil Twilight 7:18 AM EST 5:45 PM EST
Nautical Twilight 6:45 AM EST 6:19 PM EST
Astronomical Twilight 6:12 AM EST 6:51 PM EST
Moon 9:33 PM EST (12/14) 10:34 AM EST (12/14)
Length of Visible Light 10h 26m
Length of Day
9h 26m
Waning Gibbous, 83% of the Moon is Illuminated
Dec 14
Waning Gibbous
Dec 17
Last Quarter
Dec 24
New
Jan 1
First Quarter
Jan 9
Full

Hourly Weather History & Observations

Time (EST) Temp. Windchill Dew Point Humidity Pressure Visibility Wind Dir Wind Speed Gust Speed Precip Events Conditions
12:53 AM 42.1 °F 40.2 °F 39.9 °F 92% 30.36 in 8.0 mi NNE 3.5 mph - N/A   Overcast
1:53 AM 43.0 °F - 41.0 °F 93% 30.34 in 7.0 mi Calm Calm - 0.00 in Rain Light Rain
2:53 AM 42.1 °F - 41.0 °F 96% 30.34 in 4.0 mi Calm Calm - 0.00 in Rain Light Rain
3:39 AM 42.8 °F - 41.0 °F 93% 30.33 in 4.0 mi Calm Calm - 0.00 in Rain Light Rain
3:53 AM 43.0 °F - 42.1 °F 97% 30.34 in 3.0 mi Calm Calm - 0.00 in Rain Light Rain
4:06 AM 42.8 °F - 42.8 °F 100% 30.33 in 2.5 mi Calm Calm - 0.00 in Rain Light Rain
4:34 AM 42.8 °F - 42.8 °F 100% 30.32 in 3.0 mi Calm Calm - 0.00 in Rain Light Rain
4:42 AM 42.8 °F - 42.8 °F 100% 30.32 in 2.5 mi Calm Calm - 0.00 in Rain Light Rain
4:53 AM 43.0 °F - 42.1 °F 97% 30.32 in 3.0 mi Calm Calm - 0.00 in Rain Light Rain
5:53 AM 43.0 °F - 42.1 °F 97% 30.32 in 4.0 mi Calm Calm - 0.00 in Rain Light Rain
6:43 AM 42.8 °F - 41.0 °F 93% 30.30 in 2.5 mi Calm Calm - 0.00 in   Overcast
6:53 AM 43.0 °F - 42.1 °F 97% 30.30 in 2.5 mi Calm Calm - 0.00 in   Overcast
7:53 AM 44.1 °F - 43.0 °F 96% 30.29 in 2.5 mi Calm Calm - N/A   Overcast
8:28 AM 44.6 °F - 44.6 °F 100% 30.28 in 3.0 mi Calm Calm - N/A   Overcast
8:50 AM 44.6 °F - 42.8 °F 93% 30.27 in 2.5 mi Calm Calm - N/A   Scattered Clouds
8:53 AM 44.1 °F - 43.0 °F 96% 30.28 in 2.5 mi Calm Calm - N/A   Scattered Clouds
9:28 AM 46.4 °F - 44.6 °F 93% 30.28 in 2.5 mi Calm Calm - N/A   Mostly Cloudy
9:53 AM 48.0 °F - 46.0 °F 93% 30.28 in 2.5 mi Calm Calm - N/A   Overcast
10:22 AM 50.0 °F - 46.4 °F 87% 30.28 in 4.0 mi SSW 5.8 mph - N/A   Mostly Cloudy
10:51 AM 51.8 °F - 48.2 °F 88% 30.26 in 6.0 mi South 3.5 mph - N/A   Overcast
10:53 AM 51.1 °F - 48.0 °F 89% 30.26 in 7.0 mi South 6.9 mph - N/A   Overcast
11:53 AM 55.0 °F - 51.1 °F 86% 30.24 in - SSW 9.2 mph - N/A   Partly Cloudy
12:44 PM 55.4 °F - 51.8 °F 88% 30.21 in 10.0 mi South 8.1 mph - N/A   Mostly Cloudy
12:53 PM 57.0 °F - 52.0 °F 83% 30.20 in 10.0 mi South 8.1 mph - N/A   Mostly Cloudy
1:53 PM 59.0 °F - 52.0 °F 78% 30.17 in 10.0 mi South 6.9 mph - N/A   Overcast
2:53 PM 61.0 °F - 53.1 °F 75% 30.14 in 10.0 mi South 3.5 mph - N/A   Overcast
3:05 PM 60.8 °F - 53.6 °F 77% 30.13 in 10.0 mi South 4.6 mph - N/A   Overcast
3:53 PM 62.1 °F - 52.0 °F 70% 30.12 in 10.0 mi SSW 10.4 mph 19.6 mph N/A   Scattered Clouds
4:53 PM 60.1 °F - 52.0 °F 75% 30.11 in 10.0 mi SSW 9.2 mph - N/A   Mostly Cloudy
5:53 PM 57.0 °F - 51.1 °F 81% 30.08 in 10.0 mi South 9.2 mph - N/A   Clear
6:53 PM 57.9 °F - 51.1 °F 78% 30.08 in 10.0 mi South 11.5 mph - N/A   Clear
7:53 PM 57.0 °F - 50.0 °F 77% 30.08 in 10.0 mi SSW 8.1 mph - N/A   Clear
8:53 PM 55.0 °F - 48.9 °F 80% 30.07 in 10.0 mi SSW 6.9 mph - N/A   Clear
9:53 PM 55.0 °F - 48.9 °F 80% 30.05 in 10.0 mi SSW 6.9 mph - N/A   Clear
10:53 PM 55.9 °F - 50.0 °F 80% 30.04 in 10.0 mi SSW 5.8 mph - N/A   Overcast
11:53 PM 55.9 °F - 50.0 °F 80% 30.02 in 10.0 mi SSW 5.8 mph - N/A   Overcast